Location: Spring Creek
(38.2870°N, 100.2160°W)
Time: 02:59:49
(UTC+00:00)

Cosmos 1674 - Pass Details

Date: 08 May 2021
Orbit: 492 x 517 km, 82.5° (Epoch: 22 June)

Event Time Altitude Azimuth Distance (km) Brightness Sun altitude
Exits shadow 10:14:39 16° 281° (W) 1,402 4.5 -14.7°
Maximum altitude 10:14:56 16° 286° (WNW) 1,397 4.5 -14.7°
Drops below altitude 10° 10:17:24 10° 326° (NNW) 1,753 5.4 -14.3°
Sets 10:20:13 0° 349° (NNW) 2,644 6.6 -13.8°
